カタログに戻る

INTELSAT 33E DEB

運用中GEO
NORAD 62001·DEBRIS· XX

打ち上げ Aug 24, 2016 から Guiana Space Centre

Loading…

TLE

最新Source: Space-Track

元期: Sep 13, 2026, 02:54 UTC

1 62001U 16053T   26256.12091719  .00000143  00000-0  00000-0 0  9993
2 62001   1.6390  67.5069 0053330 358.3719   2.4739  1.00267624  6967

AllMySatでINTELSAT 33E DEBをリアルタイム追跡

Download on the App Store